This is the latest recevied weather packets stored in our database for station/object NK0Z-13. If no packets are shown the sender has not sent any weather packets the latest 1 day(s).
| Time | Temp. | Humidity | Pressure | Rain* | Wind** | Luminosity | Snow |
|---|---|---|---|---|---|---|---|
| 1778031696 | 9.44° C | 79% | 1016 hPa | 0 mm | 0.45 m/s, 81° | 0 W/m² | - |
| 1778031091 | 9.44° C | 77% | 1015.5 hPa | 0 mm | 0.89 m/s, 321° | 0 W/m² | - |
| 1778030489 | 9.44° C | 77% | 1015.3 hPa | 0 mm | 0.89 m/s, 9° | 1 W/m² | - |
| 1778029889 | 9.44° C | 76% | 1015.1 hPa | 0 mm | 0 m/s | 4 W/m² | - |
| 1778029285 | 10° C | 75% | 1014.9 hPa | 0 mm | 1.34 m/s, 3° | 6 W/m² | - |
| 1778028684 | 10° C | 74% | 1015.2 hPa | 0 mm | 0.89 m/s, 359° | 7 W/m² | - |
| 1778028084 | 10° C | 75% | 1014.7 hPa | 0 mm | 2.24 m/s, 16° | 14 W/m² | - |
| 1778027482 | 10° C | 74% | 1014.7 hPa | 0 mm | 1.34 m/s, 22° | 25 W/m² | - |
| 1778026880 | 10.56° C | 69% | 1014.8 hPa | 0 mm | 3.58 m/s, 11° | 35 W/m² | - |
| 1778026279 | 10.56° C | 67% | 1014.7 hPa | 0 mm | 1.79 m/s, 11° | 23 W/m² | - |
| 1778025679 | 10.56° C | 66% | 1014.6 hPa | 0 mm | 2.68 m/s, 26° | 32 W/m² | - |
| 1778025074 | 11.11° C | 66% | 1014.6 hPa | 0 mm | 2.68 m/s, 31° | 42 W/m² | - |
| 1778024473 | 11.11° C | 65% | 1014.4 hPa | 0 mm | 1.79 m/s, 1° | 57 W/m² | - |
| 1778023868 | 11.67° C | 64% | 1014.2 hPa | 0 mm | 2.24 m/s, 0° | 116 W/m² | - |
| 1778023263 | 11.67° C | 61% | 1014.4 hPa | 0 mm | 4.02 m/s, 6° | 143 W/m² | - |
| 1778022659 | 11.67° C | 60% | 1014.4 hPa | 0 mm | 1.34 m/s, 62° | 203 W/m² | - |
| 1778022058 | 11.67° C | 60% | 1014.4 hPa | 0 mm | 2.68 m/s, 44° | 207 W/m² | - |
| 1778021456 | 11.67° C | 59% | 1014.4 hPa | 0 mm | 2.24 m/s, 42° | 177 W/m² | - |
| 1778020856 | 11.67° C | 62% | 1014.2 hPa | 0 mm | 2.24 m/s, 38° | 220 W/m² | - |
| 1778020255 | 11.67° C | 62% | 1013.8 hPa | 0 mm | 2.68 m/s, 355° | 246 W/m² | - |
| 1778019653 | 12.22° C | 62% | 1013.8 hPa | 0 mm | 2.68 m/s, 13° | 232 W/m² | - |
| 1778019053 | 11.67° C | 61% | 1014.4 hPa | 0 mm | 5.36 m/s, 40° | 214 W/m² | - |
| 1778018448 | 11.67° C | 59% | 1014.5 hPa | 0 mm | 3.13 m/s, 30° | 206 W/m² | - |
| 1778017843 | 12.22° C | 59% | 1014.1 hPa | 0 mm | 3.58 m/s, 30° | 300 W/m² | - |
| 1778017244 | 12.22° C | 60% | 1014.3 hPa | 0 mm | 1.34 m/s, 10° | 234 W/m² | - |
* Rain latest hour (hover to see other rain measurements)
** Current wind speed in m/s (hover to see current wind gust speed)